User: anonymous   Login
Location: Unspecified
(0.0000°N, 0.0000°E)
Time: 11:03:34
(UTC+00:00)
Language:

STARLINK-31082 - Orbit

View from above orbital plane
View from above orbital plane
View from above satellite
View from above satellite

Ground track
Ground track

The orbit is defined by the following mean orbital elements,

1 58606U          26145.20347873 +.00000000 +00000-0 +10268-3 0 00000
2 58606  43.0035  96.6544 0001287 263.5373  96.5332 15.27566344    04
Epoch (UTC): 25 May 2026 04:53:00
Eccentricity: 0.0001287
inclination: 43.0035°
perigee height: 482 km
apogee height: 484 km
right ascension of ascending node: 96.6544°
argument of perigee: 263.5373°
revolutions per day: 15.27566344
mean anomaly at epoch: 96.5332°

The dashed part of the orbit path shows where the satellite is in the earth's shadow,  

DLR